Location: ?????????
(53.2086°N, 54.0693°E)
Time: 01:25:21
(UTC+00:00)

Cosmos 2369 Rocket - Pass Details

Date: 08 December 2019
Orbit: 828 x 853 km, 71.0° (Epoch: 28 January)

Event Time Altitude Azimuth Distance (km) Brightness Sun altitude
Rises 16:06:32 0° 327° (NNW) 3,390 5.8 -34.5°
Reaches altitude 10° 16:08:59 10° 324° (NW) 2,455 5.0 -34.9°
Enters shadow 16:12:04 33° 314° (NW) 1,369 3.6 -35.3°
